SIRIUS-1 1 26390U 00035A 08205.06161313 .00000063 00000-0 10000-3 0 3294 2 26390 61.8593 257.7874 2725147 270.7313 58.6751 1.00279929 29546 SIRIUS-2 1 26483U 00051A 08204.72340684 .00000064 00000-0 10000-3 0 655 2 26483 63.6713 137.7523 2710347 268.7212 60.4771 1.00282703 28874 SIRIUS-3 1 26626U 00077A 08202.40430157 -.00000116 00000-0 10000-3 0 2718 2 26626 63.8053 17.6043 2668929 270.0326 59.7831 1.00280122 27987 XM-2 (ROCK) 1 26724U 01012A 08204.28749050 -.00000197 00000-0 10000-3 0 4339 2 26724 0.1090 268.2201 0002784 106.6390 303.8331 1.00270777 26987 XM-1 (ROLL) 1 26761U 01018A 08204.28749100 -.00000197 00000-0 10000-3 0 2149 2 26761 0.1048 267.5009 0004802 116.1917 295.0817 1.00270103 26459 XM-3 (RHYTHM) 1 28626U 05008A 08204.28748626 -.00000197 00000-0 10000-3 0 4867 2 28626 0.0306 80.3732 0001690 113.3156 125.0910 1.00271305 12497 XM-4 (BLUES) 1 29520U 06049A 08202.19389521 -.00000018 00000-0 10000-3 0 2477 2 29520 0.0157 45.2264 0000380 34.8387 173.0934 1.00273712 6411